| time (UTC) | temp F | wind direction | speed knots | gust knots | rain 1hr in | rain 24hr in | rain mn in | humidity % | barometer mb |
| 20260906125006 | 75 | 58 | 0.0 | 0.0 | 0.00 | 0.17 | 0.00 | 97 | 1009.5 |
| 20260906124506 | 74 | 54 | 0.0 | 0.0 | 0.00 | 0.17 | 0.00 | 97 | 1009.3 |
| 20260906124005 | 74 | 314 | 0.0 | 0.0 | 0.00 | 0.17 | 0.00 | 97 | 1009.3 |
| 20260906123549 | 74 | 305 | 0.0 | 0.0 | 0.00 | 0.17 | 0.00 | 97 | 1009.3 |
| 20260906123505 | 74 | 305 | 0.0 | 0.0 | 0.00 | 0.17 | 0.00 | 97 | 1009.3 |
| 20260906123048 | 74 | 306 | 0.0 | 0.0 | 0.00 | 0.17 | 0.00 | 97 | 1009.4 |
| 20260906123010 | 74 | 306 | 0.0 | 0.0 | 0.00 | 0.17 | 0.00 | 97 | 1009.4 |
| 20260906122509 | 74 | 308 | 0.0 | 0.0 | 0.00 | 0.17 | 0.00 | 97 | 1009.3 |
| 20260906122005 | 74 | 349 | 0.0 | 0.0 | 0.00 | 0.17 | 0.00 | 97 | 1009.3 |
| 20260906121505 | 73 | 49 | 0.0 | 0.0 | 0.00 | 0.17 | 0.00 | 97 | 1009.2 |
| 20260906121004 | 73 | 49 | 0.0 | 0.0 | 0.00 | 0.17 | 0.00 | 97 | 1009.2 |
| 20260906120607 | 73 | 316 | 0.0 | 0.0 | 0.00 | 0.17 | 0.00 | 97 | 1009.2 |
| 20260906120504 | 73 | 316 | 0.0 | 0.0 | 0.00 | 0.17 | 0.00 | 97 | 1009.2 |
| 20260906120004 | 73 | 288 | 0.0 | 0.0 | 0.00 | 0.17 | 0.00 | 97 | 1009.1 |
| 20260906115559 | 73 | 285 | 0.0 | 0.0 | 0.00 | 0.17 | 0.00 | 97 | 1009.1 |
| 20260906115506 | 73 | 285 | 0.0 | 0.0 | 0.00 | 0.17 | 0.00 | 97 | 1009.1 |
| 20260906115007 | 73 | 282 | 0.0 | 0.0 | 0.00 | 0.17 | 0.00 | 97 | 1009.1 |
| 20260906114545 | 73 | 282 | 0.0 | 0.0 | 0.00 | 0.17 | 0.00 | 97 | 1009.0 |
| 20260906114502 | 73 | 282 | 0.0 | 0.0 | 0.00 | 0.17 | 0.00 | 97 | 1009.0 |
| 20260906114002 | 73 | 269 | 0.0 | 0.0 | 0.00 | 0.17 | 0.00 | 97 | 1009.0 |
| 20260906113503 | 73 | 267 | 0.0 | 0.0 | 0.00 | 0.17 | 0.00 | 97 | 1008.8 |
| 20260906113107 | 73 | 264 | 0.0 | 0.0 | 0.00 | 0.17 | 0.00 | 97 | 1008.8 |
| 20260906113002 | 73 | 264 | 0.0 | 0.0 | 0.00 | 0.17 | 0.00 | 97 | 1008.8 |
| 20260906112001 | 73 | 281 | 0.0 | 0.9 | 0.00 | 0.17 | 0.00 | 97 | 1008.7 |
| 20260906111501 | 73 | 275 | 0.0 | 0.0 | 0.00 | 0.17 | 0.00 | 97 | 1008.7 |
| 20260906110500 | 73 | 291 | 0.0 | 0.0 | 0.00 | 0.17 | 0.00 | 96 | 1008.7 |
| 20260906110001 | 73 | 290 | 0.0 | 0.0 | 0.00 | 0.17 | 0.00 | 97 | 1008.5 |
| 20260906105500 | 73 | 291 | 0.0 | 0.0 | 0.00 | 0.17 | 0.00 | 97 | 1008.5 |
| 20260906105327 | 73 | 279 | 0.0 | 0.0 | 0.00 | 0.17 | 0.00 | 96 | 1008.4 |
| 20260906105001 | 73 | 279 | 0.0 | 0.0 | 0.00 | 0.17 | 0.00 | 96 | 1008.4 |
| 20260906103959 | 73 | 287 | 0.0 | 0.0 | 0.00 | 0.17 | 0.00 | 97 | 1008.5 |
| 20260906103458 | 73 | 312 | 0.0 | 0.0 | 0.00 | 0.17 | 0.00 | 97 | 1008.6 |
| 20260906102458 | 73 | 41 | 0.0 | 0.0 | 0.00 | 0.17 | 0.00 | 97 | 1008.7 |
| 20260906102215 | 73 | 290 | 0.0 | 0.0 | 0.00 | 0.17 | 0.00 | 96 | 1008.6 |
| 20260906101959 | 73 | 290 | 0.0 | 0.0 | 0.00 | 0.17 | 0.00 | 96 | 1008.6 |
| 20260906101457 | 74 | 290 | 0.0 | 0.0 | 0.00 | 0.17 | 0.00 | 96 | 1008.5 |
| 20260906100958 | 74 | 303 | 0.0 | 0.9 | 0.00 | 0.17 | 0.00 | 96 | 1008.5 |
| 20260906100535 | 74 | 275 | 0.0 | 0.9 | 0.00 | 0.17 | 0.00 | 97 | 1008.4 |
| 20260906100457 | 74 | 275 | 0.0 | 0.9 | 0.00 | 0.17 | 0.00 | 97 | 1008.4 |
| 20260906095956 | 73 | 287 | 0.0 | 0.0 | 0.00 | 0.17 | 0.00 | 97 | 1008.6 |
| 20260906095456 | 74 | 285 | 0.0 | 0.0 | 0.00 | 0.17 | 0.00 | 96 | 1008.7 |
| 20260906094957 | 74 | 285 | 0.0 | 0.0 | 0.00 | 0.17 | 0.00 | 96 | 1008.7 |
| 20260906094456 | 74 | 281 | 0.0 | 0.0 | 0.00 | 0.17 | 0.00 | 97 | 1008.6 |
| 20260906092955 | 74 | 279 | 0.0 | 0.0 | 0.00 | 0.17 | 0.00 | 95 | 1008.7 |
| 20260906092030 | 74 | 271 | 0.0 | 0.0 | 0.00 | 0.17 | 0.00 | 97 | 1008.8 |
| 20260906091954 | 74 | 271 | 0.0 | 0.0 | 0.00 | 0.17 | 0.00 | 97 | 1008.8 |
| 20260906090720 | 74 | 273 | 0.0 | 0.0 | 0.00 | 0.17 | 0.00 | 97 | 1008.9 |
| 20260906090453 | 74 | 273 | 0.0 | 0.0 | 0.00 | 0.17 | 0.00 | 97 | 1008.9 |
| 20260906090120 | 73 | 357 | 0.0 | 0.0 | 0.00 | 0.17 | 0.00 | 97 | 1009.0 |
| 20260906085953 | 73 | 357 | 0.0 | 0.0 | 0.00 | 0.17 | 0.00 | 97 | 1009.0 |
| 20260906085453 | 73 | 1 | 0.0 | 0.9 | 0.00 | 0.17 | 0.00 | 97 | 1009.0 |
| 20260906084952 | 73 | 325 | 0.0 | 1.7 | 0.00 | 0.17 | 0.00 | 98 | 1009.1 |
| 20260906084554 | 73 | 58 | 0.0 | 0.9 | 0.00 | 0.17 | 0.00 | 98 | 1009.1 |
| 20260906084454 | 73 | 58 | 0.0 | 0.9 | 0.00 | 0.17 | 0.00 | 98 | 1009.1 |
| 20260906083954 | 74 | 65 | 0.0 | 1.7 | 0.00 | 0.17 | 0.00 | 98 | 1009.0 |
| 20260906083454 | 73 | 311 | 0.0 | 0.0 | 0.00 | 0.17 | 0.00 | 97 | 1008.9 |
| 20260906082451 | 74 | 286 | 0.0 | 0.0 | 0.00 | 0.17 | 0.00 | 97 | 1008.7 |
| 20260906081951 | 73 | 285 | 0.0 | 0.0 | 0.00 | 0.17 | 0.00 | 98 | 1008.6 |
| 20260906081450 | 74 | 269 | 0.0 | 0.0 | 0.00 | 0.17 | 0.00 | 97 | 1008.6 |
| 20260906081157 | 74 | 256 | 0.0 | 0.0 | 0.00 | 0.17 | 0.00 | 97 | 1008.7 |
| 20260906080950 | 74 | 256 | 0.0 | 0.0 | 0.00 | 0.17 | 0.00 | 97 | 1008.7 |
| 20260906080450 | 74 | 293 | 0.0 | 0.0 | 0.00 | 0.17 | 0.00 | 97 | 1008.7 |
| 20260906075950 | 74 | 285 | 0.0 | 0.0 | 0.00 | 0.17 | 0.00 | 97 | 1008.8 |
| 20260906075452 | 74 | 270 | 0.0 | 0.0 | 0.00 | 0.17 | 0.00 | 98 | 1008.8 |
| 20260906074950 | 73 | 59 | 0.0 | 0.0 | 0.00 | 0.17 | 0.00 | 98 | 1008.8 |
| 20260906074541 | 73 | 255 | 0.0 | 0.0 | 0.00 | 0.17 | 0.00 | 97 | 1008.8 |
| 20260906074450 | 73 | 255 | 0.0 | 0.0 | 0.00 | 0.17 | 0.00 | 97 | 1008.8 |
| 20260906073948 | 73 | 255 | 0.0 | 0.0 | 0.00 | 0.17 | 0.00 | 97 | 1008.9 |
| 20260906073920 | 73 | 255 | 0.0 | 0.0 | 0.00 | 0.17 | 0.00 | 97 | 1008.5 |
| 20260906073520 | 73 | 255 | 0.0 | 0.0 | 0.00 | 0.17 | 0.00 | 97 | 1008.5 |
| 20260906073449 | 73 | 255 | 0.0 | 0.0 | 0.00 | 0.17 | 0.00 | 97 | 1008.5 |
| 20260906071947 | 73 | 271 | 0.0 | 0.0 | 0.00 | 0.17 | 0.00 | 97 | 1008.1 |
| 20260906071447 | 73 | 274 | 0.0 | 0.0 | 0.00 | 0.17 | 0.00 | 97 | 1008.1 |
| 20260906070947 | 73 | 274 | 0.0 | 0.0 | 0.00 | 0.17 | 0.00 | 97 | 1008.1 |
| 20260906070446 | 73 | 287 | 0.0 | 0.9 | 0.00 | 0.17 | 0.00 | 98 | 1008.2 |
| 20260906065946 | 73 | 305 | 0.0 | 0.9 | 0.00 | 0.17 | 0.00 | 97 | 1008.4 |
| 20260906065540 | 73 | 299 | 0.0 | 0.0 | 0.00 | 0.17 | 0.00 | 97 | 1008.5 |
| 20260906065446 | 73 | 299 | 0.0 | 0.0 | 0.00 | 0.17 | 0.00 | 97 | 1008.5 |
| 20260906064946 | 73 | 296 | 0.0 | 0.0 | 0.00 | 0.17 | 0.00 | 97 | 1008.6 |
| 20260906064146 | 73 | 296 | 0.0 | 0.0 | 0.00 | 0.17 | 0.00 | 97 | 1008.7 |
| 20260906063945 | 73 | 296 | 0.0 | 0.0 | 0.00 | 0.17 | 0.00 | 97 | 1008.7 |
| 20260906062945 | 73 | 291 | 0.0 | 0.0 | 0.00 | 0.17 | 0.00 | 97 | 1008.8 |
| 20260906061945 | 73 | 285 | 0.0 | 0.0 | 0.00 | 0.17 | 0.00 | 97 | 1008.8 |
| 20260906061020 | 74 | 283 | 0.0 | 0.0 | 0.00 | 0.17 | 0.00 | 97 | 1008.8 |
| 20260906060943 | 74 | 283 | 0.0 | 0.0 | 0.00 | 0.17 | 0.00 | 97 | 1008.8 |
| 20260906060443 | 73 | 282 | 0.0 | 0.9 | 0.00 | 0.17 | 0.00 | 98 | 1008.7 |
| 20260906055943 | 73 | 281 | 0.0 | 0.0 | 0.00 | 0.17 | 0.00 | 97 | 1008.8 |
| 20260906055444 | 73 | 281 | 0.0 | 0.0 | 0.00 | 0.17 | 0.00 | 97 | 1008.8 |
| 20260906054444 | 74 | 68 | 0.0 | 2.6 | 0.00 | 0.17 | 0.00 | 97 | 1008.9 |
| 20260906053443 | 74 | 290 | 0.0 | 0.0 | 0.00 | 0.17 | 0.00 | 97 | 1008.9 |
| 20260906052943 | 74 | 290 | 0.0 | 0.9 | 0.00 | 0.17 | 0.00 | 97 | 1008.8 |
| 20260906052442 | 74 | 325 | 0.0 | 0.0 | 0.00 | 0.17 | 0.00 | 97 | 1008.9 |
| 20260906051942 | 74 | 306 | 0.0 | 0.0 | 0.00 | 0.17 | 0.00 | 97 | 1008.9 |
| 20260906051440 | 74 | 306 | 0.0 | 0.0 | 0.00 | 0.17 | 0.00 | 97 | 1008.9 |
| 20260906045943 | 74 | 328 | 0.0 | 0.9 | 0.00 | 0.17 | 0.00 | 97 | 1009.0 |
| 20260906045444 | 74 | 328 | 0.0 | 0.0 | 0.00 | 0.17 | 0.00 | 97 | 1009.0 |
| 20260906042938 | 74 | 277 | 0.0 | 0.0 | 0.00 | 0.17 | 0.00 | 96 | 1009.4 |
| 20260906042444 | 74 | 278 | 0.0 | 0.0 | 0.00 | 0.17 | 0.00 | 96 | 1009.4 |
| 20260906035545 | 74 | 285 | 0.0 | 0.9 | 0.00 | 0.17 | 0.17 | 97 | 1009.4 |
| 20260906035436 | 74 | 285 | 0.0 | 0.9 | 0.00 | 0.17 | 0.17 | 97 | 1009.4 |
| 20260906034435 | 75 | 281 | 0.0 | 0.0 | 0.00 | 0.17 | 0.17 | 97 | 1009.4 |
| 20260906033935 | 75 | 280 | 0.0 | 0.9 | 0.00 | 0.17 | 0.17 | 97 | 1009.4 |
| 20260906032934 | 75 | 297 | 0.0 | 0.0 | 0.00 | 0.17 | 0.17 | 96 | 1009.4 |
| 20260906032434 | 75 | 297 | 0.0 | 0.9 | 0.00 | 0.17 | 0.17 | 96 | 1009.4 |
| 20260906031934 | 75 | 286 | 0.0 | 0.9 | 0.00 | 0.17 | 0.17 | 96 | 1009.3 |
| 20260906030934 | 75 | 277 | 0.0 | 0.9 | 0.00 | 0.17 | 0.17 | 96 | 1009.2 |
| 20260906025933 | 75 | 301 | 0.0 | 0.9 | 0.00 | 0.17 | 0.17 | 96 | 1009.1 |
| 20260906025433 | 75 | 311 | 0.0 | 0.9 | 0.00 | 0.17 | 0.17 | 96 | 1009.2 |
| 20260906024932 | 75 | 311 | 0.0 | 0.9 | 0.00 | 0.17 | 0.17 | 96 | 1009.1 |
| 20260906024432 | 75 | 272 | 0.0 | 0.9 | 0.00 | 0.17 | 0.17 | 96 | 1009.1 |
| 20260906023931 | 75 | 262 | 0.0 | 0.9 | 0.00 | 0.17 | 0.17 | 95 | 1009.0 |
| 20260906023433 | 75 | 258 | 0.0 | 0.0 | 0.00 | 0.17 | 0.17 | 95 | 1008.9 |
| 20260906022932 | 76 | 286 | 0.0 | 0.0 | 0.00 | 0.17 | 0.17 | 95 | 1009.0 |
| 20260906022431 | 76 | 282 | 0.0 | 0.0 | 0.00 | 0.17 | 0.17 | 95 | 1009.0 |
| 20260906021930 | 76 | 282 | 0.0 | 0.0 | 0.00 | 0.17 | 0.17 | 95 | 1009.0 |
| 20260906021431 | 76 | 295 | 0.0 | 0.0 | 0.00 | 0.17 | 0.17 | 96 | 1009.0 |
| 20260906020930 | 75 | 283 | 0.0 | 0.0 | 0.00 | 0.17 | 0.17 | 96 | 1009.0 |
| 20260906015929 | 76 | 274 | 0.0 | 0.0 | 0.00 | 0.17 | 0.17 | 95 | 1008.8 |
| 20260906015429 | 76 | 273 | 0.0 | 0.0 | 0.00 | 0.17 | 0.17 | 96 | 1008.9 |
| 20260906014929 | 76 | 278 | 0.0 | 0.0 | 0.00 | 0.17 | 0.17 | 96 | 1008.8 |
| 20260906014428 | 76 | 253 | 0.0 | 0.0 | 0.00 | 0.17 | 0.17 | 95 | 1008.8 |
| 20260906013929 | 76 | 276 | 0.0 | 0.0 | 0.00 | 0.17 | 0.17 | 95 | 1008.6 |
| 20260906013429 | 76 | 276 | 0.0 | 0.0 | 0.00 | 0.17 | 0.17 | 95 | 1008.6 |
| 20260906012427 | 77 | 277 | 0.0 | 0.0 | 0.00 | 0.17 | 0.17 | 94 | 1008.4 |
| 20260906011929 | 77 | 274 | 0.0 | 0.0 | 0.00 | 0.17 | 0.17 | 95 | 1008.3 |
| 20260906011428 | 77 | 267 | 0.0 | 0.0 | 0.00 | 0.17 | 0.17 | 95 | 1008.2 |
| 20260906010428 | 77 | 290 | 0.0 | 0.0 | 0.00 | 0.17 | 0.17 | 95 | 1007.8 |
| 20260906005926 | 77 | 290 | 0.0 | 0.0 | 0.00 | 0.17 | 0.17 | 95 | 1007.6 |
| 20260906005425 | 77 | 305 | 0.0 | 0.0 | 0.00 | 0.17 | 0.17 | 94 | 1007.6 |
| 20260906004926 | 77 | 304 | 0.0 | 0.0 | 0.00 | 0.17 | 0.17 | 94 | 1007.5 |
| 20260906004425 | 77 | 300 | 0.0 | 0.0 | 0.00 | 0.17 | 0.17 | 94 | 1007.5 |
| 20260906003925 | 77 | 277 | 0.0 | 0.0 | 0.00 | 0.17 | 0.17 | 95 | 1007.4 |
| 20260906003642 | 77 | 279 | 0.0 | 0.0 | 0.00 | 0.17 | 0.17 | 95 | 1007.3 |
| 20260906003425 | 77 | 279 | 0.0 | 0.0 | 0.00 | 0.17 | 0.17 | 95 | 1007.3 |
| 20260906002424 | 77 | 304 | 0.0 | 0.0 | 0.00 | 0.17 | 0.17 | 94 | 1007.6 |
| 20260906001924 | 78 | 309 | 0.0 | 0.0 | 0.00 | 0.17 | 0.17 | 94 | 1007.6 |
| 20260906001423 | 78 | 281 | 0.0 | 0.0 | 0.00 | 0.17 | 0.17 | 94 | 1007.6 |
| 20260906000425 | 78 | 317 | 0.0 | 0.0 | 0.00 | 0.17 | 0.17 | 94 | 1007.8 |
| 20260905235422 | 79 | 287 | 0.0 | 0.0 | 0.00 | 0.17 | 0.17 | 94 | 1007.9 |
| 20260905234922 | 79 | 307 | 0.0 | 0.0 | 0.00 | 0.17 | 0.17 | 94 | 1008.0 |
| 20260905234424 | 79 | 275 | 0.0 | 0.0 | 0.00 | 0.17 | 0.17 | 94 | 1008.1 |
| 20260905233033 | 79 | 310 | 0.0 | 0.0 | 0.00 | 0.17 | 0.17 | 92 | 1007.9 |
| 20260905232921 | 79 | 310 | 0.0 | 0.0 | 0.00 | 0.17 | 0.17 | 92 | 1007.9 |
| 20260905232420 | 80 | 281 | 0.0 | 0.0 | 0.00 | 0.17 | 0.17 | 93 | 1007.9 |
| 20260905232159 | 80 | 268 | 0.0 | 0.0 | 0.00 | 0.17 | 0.17 | 93 | 1007.8 |
| 20260905231920 | 80 | 268 | 0.0 | 0.0 | 0.00 | 0.17 | 0.17 | 93 | 1007.8 |
| 20260905231420 | 80 | 309 | 0.0 | 0.0 | 0.00 | 0.17 | 0.17 | 92 | 1007.8 |
| 20260905230920 | 80 | 318 | 0.0 | 0.0 | 0.00 | 0.17 | 0.17 | 92 | 1007.7 |
| 20260905225921 | 80 | 316 | 0.0 | 0.0 | 0.00 | 0.17 | 0.17 | 93 | 1007.6 |
| 20260905225503 | 80 | 325 | 0.0 | 0.0 | 0.00 | 0.17 | 0.17 | 92 | 1007.5 |
| 20260905225419 | 80 | 325 | 0.0 | 0.0 | 0.00 | 0.17 | 0.17 | 92 | 1007.5 |
| 20260905224918 | 81 | 346 | 0.0 | 0.0 | 0.00 | 0.17 | 0.17 | 92 | 1007.2 |
| 20260905224418 | 81 | 293 | 0.0 | 0.0 | 0.00 | 0.17 | 0.17 | 92 | 1007.2 |
| 20260905223417 | 81 | 278 | 0.0 | 0.0 | 0.00 | 0.17 | 0.17 | 93 | 1007.2 |
| 20260905222917 | 81 | 289 | 0.0 | 0.0 | 0.00 | 0.17 | 0.17 | 94 | 1007.3 |
| 20260905222450 | 80 | 314 | 0.0 | 0.0 | 0.00 | 0.17 | 0.17 | 94 | 1007.6 |
| 20260905222417 | 80 | 314 | 0.0 | 0.0 | 0.00 | 0.17 | 0.17 | 94 | 1007.6 |
| 20260905221917 | 80 | 304 | 0.0 | 0.0 | 0.00 | 0.17 | 0.17 | 94 | 1007.7 |
| 20260905220917 | 80 | 321 | 0.0 | 0.0 | 0.01 | 0.17 | 0.17 | 94 | 1008.0 |
| 20260905215919 | 80 | 301 | 0.0 | 0.0 | 0.15 | 0.17 | 0.17 | 93 | 1008.3 |
| 20260905215810 | 80 | 290 | 0.0 | 0.0 | 0.17 | 0.17 | 0.17 | 93 | 1008.1 |
| 20260905215415 | 80 | 290 | 0.0 | 0.0 | 0.17 | 0.17 | 0.17 | 93 | 1008.1 |
| 20260905214415 | 79 | 257 | 0.0 | 0.0 | 0.17 | 0.17 | 0.17 | 94 | 1008.3 |
| 20260905214005 | 79 | 311 | 0.0 | 0.9 | 0.17 | 0.17 | 0.17 | 93 | 1008.4 |
| 20260905213916 | 79 | 311 | 0.0 | 0.9 | 0.17 | 0.17 | 0.17 | 93 | 1008.4 |
| 20260905213415 | 78 | 328 | 0.0 | 0.9 | 0.17 | 0.17 | 0.17 | 94 | 1008.4 |
| 20260905212914 | 77 | 295 | 0.0 | 0.9 | 0.17 | 0.17 | 0.17 | 91 | 1008.3 |
| 20260905212414 | 76 | 318 | 0.9 | 2.6 | 0.17 | 0.17 | 0.17 | 89 | 1008.2 |
| 20260905211914 | 77 | 60 | 3.5 | 4.3 | 0.17 | 0.17 | 0.17 | 90 | 1008.1 |
| 20260905211413 | 78 | 64 | 4.3 | 9.6 | 0.16 | 0.16 | 0.16 | 89 | 1008.1 |
| 20260905210913 | 78 | 72 | 5.2 | 4.3 | 0.16 | 0.16 | 0.16 | 87 | 1007.8 |
| 20260905210604 | 80 | 27 | 6.1 | 11.3 | 0.11 | 0.11 | 0.11 | 85 | 1008.2 |
| 20260905210413 | 80 | 27 | 6.1 | 11.3 | 0.11 | 0.11 | 0.11 | 85 | 1008.2 |
| 20260905205912 | 83 | 87 | 6.1 | 9.6 | 0.02 | 0.02 | 0.02 | 78 | 1008.2 |
| 20260905205413 | 91 | 79 | 3.5 | 11.3 | 0.00 | 0.00 | 0.00 | 60 | 1008.3 |
| 20260905205016 | 92 | 68 | 1.7 | 7.8 | 0.00 | 0.00 | 0.00 | 57 | 1008.2 |
| 20260905204912 | 92 | 68 | 1.7 | 7.8 | 0.00 | 0.00 | 0.00 | 57 | 1008.2 |
| 20260905204555 | 94 | 52 | 1.7 | 3.5 | 0.00 | 0.00 | 0.00 | 55 | 1007.8 |
| 20260905204412 | 94 | 52 | 1.7 | 3.5 | 0.00 | 0.00 | 0.00 | 55 | 1007.8 |
| 20260905203912 | 95 | 328 | 1.7 | 3.5 | 0.00 | 0.00 | 0.00 | 57 | 1007.6 |
| 20260905203411 | 96 | 85 | 0.9 | 2.6 | 0.00 | 0.00 | 0.00 | 57 | 1007.4 |
| 20260905202912 | 95 | 72 | 0.0 | 3.5 | 0.00 | 0.00 | 0.00 | 56 | 1007.5 |
| 20260905202410 | 96 | 35 | 0.0 | 0.9 | 0.00 | 0.00 | 0.00 | 55 | 1007.5 |
| 20260905201910 | 96 | 313 | 0.0 | 0.9 | 0.00 | 0.00 | 0.00 | 56 | 1007.5 |
| 20260905200409 | 93 | 321 | 0.0 | 0.0 | 0.00 | 0.00 | 0.00 | 62 | 1007.6 |
| 20260905195408 | 93 | 60 | 0.0 | 0.9 | 0.00 | 0.00 | 0.00 | 63 | 1007.7 |
| 20260905194909 | 94 | 43 | 0.0 | 0.9 | 0.00 | 0.00 | 0.00 | 61 | 1007.7 |
| 20260905194408 | 94 | 7 | 0.0 | 0.9 | 0.00 | 0.00 | 0.00 | 59 | 1007.7 |
| 20260905193908 | 94 | 314 | 0.0 | 0.9 | 0.00 | 0.00 | 0.00 | 58 | 1007.7 |
| 20260905193451 | 94 | 331 | 0.0 | 0.9 | 0.00 | 0.00 | 0.00 | 58 | 1007.8 |
| 20260905193407 | 94 | 331 | 0.0 | 0.9 | 0.00 | 0.00 | 0.00 | 58 | 1007.8 |
| 20260905192907 | 94 | 323 | 0.0 | 1.7 | 0.00 | 0.00 | 0.00 | 58 | 1007.9 |
| 20260905192407 | 95 | 42 | 0.0 | 0.9 | 0.00 | 0.00 | 0.00 | 57 | 1007.9 |
| 20260905191406 | 95 | 52 | 0.0 | 0.9 | 0.00 | 0.00 | 0.00 | 55 | 1008.1 |
| 20260905190908 | 95 | 259 | 0.0 | 0.9 | 0.00 | 0.00 | 0.00 | 56 | 1008.2 |
| 20260905185405 | 96 | 284 | 0.9 | 0.9 | 0.00 | 0.00 | 0.00 | 55 | 1008.2 |
| 20260905184905 | 95 | 79 | 3.5 | 5.2 | 0.00 | 0.00 | 0.00 | 58 | 1008.2 |
| 20260905183904 | 96 | 66 | 0.9 | 3.5 | 0.00 | 0.00 | 0.00 | 53 | 1008.2 |
| 20260905183404 | 95 | 63 | 0.9 | 3.5 | 0.00 | 0.00 | 0.00 | 55 | 1008.3 |
| 20260905182904 | 95 | 65 | 0.9 | 3.5 | 0.00 | 0.00 | 0.00 | 56 | 1008.4 |
| 20260905182515 | 95 | 66 | 0.9 | 1.7 | 0.00 | 0.00 | 0.00 | 54 | 1008.5 |
| 20260905182406 | 95 | 66 | 0.9 | 1.7 | 0.00 | 0.00 | 0.00 | 54 | 1008.5 |
| 20260905181903 | 95 | 65 | 2.6 | 6.1 | 0.00 | 0.00 | 0.00 | 54 | 1008.5 |
| 20260905181615 | 94 | 70 | 2.6 | 7.0 | 0.00 | 0.00 | 0.00 | 55 | 1008.6 |
| 20260905181406 | 94 | 70 | 2.6 | 7.0 | 0.00 | 0.00 | 0.00 | 55 | 1008.6 |
| 20260905175902 | 94 | 264 | 3.5 | 7.0 | 0.00 | 0.00 | 0.00 | 57 | 1008.9 |
| 20260905175402 | 94 | 69 | 3.5 | 7.8 | 0.00 | 0.00 | 0.00 | 54 | 1009.0 |
| 20260905174902 | 93 | 80 | 1.7 | 6.1 | 0.00 | 0.00 | 0.00 | 61 | 1008.9 |
| 20260905174401 | 94 | 75 | 0.0 | 2.6 | 0.00 | 0.00 | 0.00 | 57 | 1009.0 |
| 20260905174154 | 94 | 75 | 0.9 | 1.7 | 0.00 | 0.00 | 0.00 | 57 | 1009.0 |
| 20260905173901 | 94 | 75 | 0.9 | 1.7 | 0.00 | 0.00 | 0.00 | 57 | 1009.0 |
| 20260905173401 | 94 | 54 | 0.9 | 4.3 | 0.00 | 0.00 | 0.00 | 59 | 1009.2 |
| 20260905172400 | 93 | 58 | 1.7 | 5.2 | 0.00 | 0.00 | 0.00 | 61 | 1009.2 |
| 20260905171939 | 93 | 71 | 0.9 | 2.6 | 0.00 | 0.00 | 0.00 | 60 | 1009.2 |
| 20260905171900 | 93 | 71 | 0.9 | 2.6 | 0.00 | 0.00 | 0.00 | 60 | 1009.2 |
| 20260905171359 | 93 | 63 | 0.9 | 2.6 | 0.00 | 0.00 | 0.00 | 64 | 1009.3 |
| 20260905165858 | 91 | 64 | 1.7 | 0.9 | 0.00 | 0.00 | 0.00 | 64 | 1009.5 |
| 20260905165358 | 91 | 77 | 1.7 | 4.3 | 0.00 | 0.00 | 0.00 | 67 | 1009.5 |
| 20260905164858 | 91 | 78 | 0.9 | 2.6 | 0.00 | 0.00 | 0.00 | 67 | 1009.6 |
| 20260905164649 | 90 | 66 | 0.9 | 1.7 | 0.00 | 0.00 | 0.00 | 68 | 1009.7 |
| 20260905164359 | 90 | 66 | 0.9 | 1.7 | 0.00 | 0.00 | 0.00 | 68 | 1009.7 |
| 20260905164202 | 90 | 78 | 0.9 | 1.7 | 0.00 | 0.00 | 0.00 | 69 | 1009.8 |
| 20260905163857 | 90 | 78 | 0.9 | 1.7 | 0.00 | 0.00 | 0.00 | 69 | 1009.8 |
| 20260905163358 | 90 | 352 | 1.7 | 1.7 | 0.00 | 0.00 | 0.00 | 68 | 1009.8 |
| 20260905162700 | 89 | 75 | 0.9 | 2.6 | 0.00 | 0.00 | 0.00 | 69 | 1009.9 |
| 20260905162356 | 89 | 75 | 0.9 | 2.6 | 0.00 | 0.00 | 0.00 | 69 | 1009.9 |
| 20260905161856 | 89 | 81 | 1.7 | 5.2 | 0.00 | 0.00 | 0.00 | 70 | 1010.0 |
| 20260905161356 | 89 | 64 | 0.9 | 4.3 | 0.00 | 0.00 | 0.00 | 70 | 1010.2 |
| 20260905160856 | 89 | 61 | 0.0 | 0.0 | 0.00 | 0.00 | 0.00 | 72 | 1010.2 |
| 20260905160357 | 89 | 72 | 0.0 | 0.0 | 0.00 | 0.00 | 0.00 | 73 | 1010.2 |
| 20260905155855 | 88 | 71 | 0.0 | 0.0 | 0.00 | 0.00 | 0.00 | 73 | 1010.2 |
| 20260905155355 | 88 | 73 | 0.0 | 0.0 | 0.00 | 0.00 | 0.00 | 73 | 1010.3 |
| 20260905154855 | 87 | 84 | 0.0 | 1.7 | 0.00 | 0.00 | 0.00 | 73 | 1010.3 |
| 20260905154355 | 87 | 74 | 0.0 | 1.7 | 0.00 | 0.00 | 0.00 | 73 | 1010.5 |
| 20260905154110 | 87 | 73 | 0.0 | 0.9 | 0.00 | 0.00 | 0.00 | 75 | 1010.4 |
| 20260905153854 | 87 | 73 | 0.0 | 0.9 | 0.00 | 0.00 | 0.00 | 75 | 1010.4 |
| 20260905152853 | 86 | 56 | 0.0 | 55.6 | 0.00 | 0.00 | 0.00 | 77 | 1010.4 |
| 20260905152353 | 86 | 56 | 0.0 | 0.0 | 0.00 | 0.00 | 0.00 | 76 | 1010.4 |
| 20260905151853 | 86 | 56 | 0.0 | 0.0 | 0.00 | 0.00 | 0.00 | 77 | 1010.5 |
| 20260905151353 | 85 | 51 | 0.0 | 0.9 | 0.00 | 0.00 | 0.00 | 77 | 1010.6 |
| 20260905150852 | 85 | 51 | 0.0 | 0.9 | 0.00 | 0.00 | 0.00 | 77 | 1010.6 |
| 20260905145353 | 84 | 42 | 0.0 | 0.0 | 0.00 | 0.00 | 0.00 | 78 | 1010.8 |
| 20260905144351 | 84 | 353 | 0.0 | 0.9 | 0.00 | 0.00 | 0.00 | 79 | 1010.8 |
| 20260905142350 | 82 | 44 | 0.0 | 0.0 | 0.00 | 0.00 | 0.00 | 84 | 1011.0 |
| 20260905141849 | 82 | 44 | 0.0 | 0.9 | 0.00 | 0.00 | 0.00 | 83 | 1011.0 |
| 20260905141349 | 81 | 355 | 0.0 | 0.9 | 0.00 | 0.00 | 0.00 | 83 | 1011.0 |
| 20260905140849 | 81 | 96 | 0.0 | 0.0 | 0.00 | 0.00 | 0.00 | 86 | 1011.0 |
| 20260905135848 | 81 | 96 | 0.0 | 0.0 | 0.00 | 0.00 | 0.00 | 87 | 1011.0 |
| 20260905135435 | 80 | 97 | 0.0 | 0.0 | 0.00 | 0.00 | 0.00 | 87 | 1011.1 |
| 20260905135348 | 80 | 97 | 0.0 | 0.0 | 0.00 | 0.00 | 0.00 | 87 | 1011.1 |
| 20260905135040 | 80 | 97 | 0.0 | 0.0 | 0.00 | 0.00 | 0.00 | 89 | 1011.1 |
| 20260905134932 | 80 | 97 | 0.0 | 0.0 | 0.00 | 0.00 | 0.00 | 89 | 1011.1 |
| 20260905134848 | 80 | 97 | 0.0 | 0.0 | 0.00 | 0.00 | 0.00 | 89 | 1011.1 |
| 20260905134419 | 80 | 98 | 0.0 | 0.0 | 0.00 | 0.00 | 0.00 | 89 | 1011.1 |
| 20260905134347 | 80 | 98 | 0.0 | 0.0 | 0.00 | 0.00 | 0.00 | 89 | 1011.1 |
| 20260905133847 | 79 | 52 | 0.0 | 0.0 | 0.00 | 0.00 | 0.00 | 89 | 1011.2 |
| 20260905133517 | 79 | 52 | 0.0 | 0.0 | 0.00 | 0.00 | 0.00 | 89 | 1011.4 |
| 20260905133350 | 79 | 52 | 0.0 | 0.0 | 0.00 | 0.00 | 0.00 | 89 | 1011.4 |
| 20260905132955 | 78 | 51 | 0.0 | 0.0 | 0.00 | 0.00 | 0.00 | 91 | 1011.3 |
| 20260905132847 | 78 | 51 | 0.0 | 0.0 | 0.00 | 0.00 | 0.00 | 91 | 1011.3 |
| 20260905132346 | 78 | 51 | 0.0 | 0.0 | 0.00 | 0.00 | 0.00 | 91 | 1011.3 |
| 20260905131846 | 78 | 39 | 0.0 | 0.0 | 0.00 | 0.00 | 0.00 | 92 | 1011.5 |
| 20260905131346 | 78 | 39 | 0.0 | 0.0 | 0.00 | 0.00 | 0.00 | 92 | 1011.4 |
| 20260905130846 | 77 | 39 | 0.0 | 0.0 | 0.00 | 0.00 | 0.00 | 93 | 1011.5 |
| 20260905125846 | 77 | 64 | 0.0 | 0.0 | 0.00 | 0.00 | 0.00 | 93 | 1011.5 |